| time (UTC) | temp F | wind direction | speed MPH | gust MPH | rain 1hr in | rain 24hr in | rain mn in | humidity % | barometer mb |
| 20260902002636 | 91 | 355 | 6.0 | 7.0 | 0.00 | 0.00 | 0.00 | 41 | 1013.3 |
| 20260902002131 | 91 | 307 | 4.0 | 5.0 | 0.00 | 0.00 | 0.00 | 42 | 1013.4 |
| 20260902001626 | 91 | 278 | 7.0 | 8.0 | 0.00 | 0.00 | 0.00 | 41 | 1013.7 |
| 20260902001121 | 91 | 321 | 5.0 | 6.0 | 0.00 | 0.00 | 0.00 | 41 | 1013.5 |
| 20260902000616 | 91 | 297 | 4.0 | 6.0 | 0.00 | 0.00 | 0.00 | 42 | 1013.5 |
| 20260902000111 | 91 | 275 | 5.0 | 6.0 | 0.00 | 0.00 | 0.00 | 42 | 1013.6 |
| 20260901235611 | 91 | 293 | 6.0 | 8.0 | 0.00 | 0.00 | 0.00 | 41 | 1013.7 |
| 20260901235106 | 91 | 308 | 5.0 | 6.0 | 0.00 | 0.00 | 0.00 | 42 | 1013.4 |
| 20260901234605 | 91 | 317 | 6.0 | 7.0 | 0.00 | 0.00 | 0.00 | 43 | 1013.8 |
| 20260901234101 | 91 | 333 | 6.0 | 7.0 | 0.00 | 0.00 | 0.00 | 42 | 1013.8 |
| 20260901233601 | 92 | 251 | 5.0 | 7.0 | 0.00 | 0.00 | 0.00 | 43 | 1013.8 |
| 20260901233057 | 91 | 314 | 5.0 | 7.0 | 0.00 | 0.00 | 0.00 | 43 | 1013.8 |
| 20260901232552 | 91 | 278 | 6.0 | 7.0 | 0.00 | 0.00 | 0.00 | 41 | 1013.7 |
| 20260901232047 | 92 | 292 | 5.0 | 6.0 | 0.00 | 0.00 | 0.00 | 41 | 1013.8 |
| 20260901231543 | 91 | 260 | 8.0 | 9.0 | 0.00 | 0.00 | 0.00 | 42 | 1013.8 |
| 20260901231039 | 92 | 269 | 5.0 | 8.0 | 0.00 | 0.00 | 0.00 | 42 | 1014.0 |
| 20260901230540 | 92 | 332 | 6.0 | 7.0 | 0.00 | 0.00 | 0.00 | 41 | 1014.0 |
| 20260901230035 | 92 | 207 | 3.0 | 3.0 | 0.00 | 0.00 | 0.00 | 41 | 1014.1 |
| 20260901225530 | 91 | 227 | 1.0 | 2.0 | 0.00 | 0.00 | 0.00 | 41 | 1013.8 |
| 20260901225029 | 91 | 226 | 6.0 | 7.0 | 0.00 | 0.00 | 0.00 | 41 | 1013.8 |
| 20260901224525 | 93 | 219 | 6.0 | 8.0 | 0.00 | 0.00 | 0.00 | 39 | 1013.8 |
| 20260901224021 | 93 | 10 | 2.0 | 2.0 | 0.00 | 0.00 | 0.00 | 38 | 1014.2 |
| 20260901223516 | 92 | 276 | 6.0 | 6.0 | 0.00 | 0.00 | 0.00 | 39 | 1014.2 |
| 20260901223012 | 92 | 291 | 9.0 | 10.0 | 0.00 | 0.00 | 0.00 | 38 | 1014.2 |
| 20260901222508 | 91 | 253 | 4.0 | 5.0 | 0.00 | 0.00 | 0.00 | 38 | 1014.4 |
| 20260901222004 | 91 | 314 | 6.0 | 7.0 | 0.00 | 0.00 | 0.00 | 41 | 1014.3 |
| 20260901221459 | 91 | 237 | 6.0 | 6.0 | 0.00 | 0.00 | 0.00 | 40 | 1014.3 |
| 20260901220955 | 92 | 318 | 3.0 | 5.0 | 0.00 | 0.00 | 0.00 | 41 | 1014.3 |
| 20260901220454 | 92 | 280 | 1.0 | 2.0 | 0.00 | 0.00 | 0.00 | 39 | 1014.4 |
| 20260901215952 | 91 | 255 | 5.0 | 6.0 | 0.00 | 0.00 | 0.00 | 40 | 1014.4 |
| 20260901215451 | 91 | 210 | 5.0 | 6.0 | 0.00 | 0.00 | 0.00 | 41 | 1014.7 |
| 20260901214950 | 91 | 237 | 5.0 | 6.0 | 0.00 | 0.00 | 0.00 | 38 | 1014.8 |
| 20260901214449 | 91 | 295 | 7.0 | 8.0 | 0.00 | 0.00 | 0.00 | 41 | 1014.7 |
| 20260901213944 | 91 | 229 | 6.0 | 7.0 | 0.00 | 0.00 | 0.00 | 40 | 1014.7 |
| 20260901213438 | 92 | 274 | 6.0 | 8.0 | 0.00 | 0.00 | 0.00 | 40 | 1014.9 |
| 20260901212938 | 91 | 321 | 5.0 | 6.0 | 0.00 | 0.00 | 0.00 | 41 | 1014.9 |
| 20260901212433 | 91 | 287 | 5.0 | 6.0 | 0.00 | 0.00 | 0.00 | 41 | 1015.3 |
| 20260901211930 | 90 | 21 | 2.0 | 2.0 | 0.00 | 0.00 | 0.00 | 42 | 1015.1 |
| 20260901211425 | 91 | 349 | 5.0 | 6.0 | 0.00 | 0.00 | 0.00 | 42 | 1015.0 |
| 20260901210921 | 91 | 288 | 3.0 | 3.0 | 0.00 | 0.00 | 0.00 | 42 | 1015.5 |
| 20260901210416 | 90 | 10 | 1.0 | 2.0 | 0.00 | 0.00 | 0.00 | 43 | 1015.5 |
| 20260901205913 | 90 | 215 | 0.0 | 0.0 | 0.00 | 0.00 | 0.00 | 40 | 1015.3 |
| 20260901205407 | 91 | 288 | 2.0 | 2.0 | 0.00 | 0.00 | 0.00 | 41 | 1015.4 |
| 20260901204902 | 90 | 217 | 2.0 | 2.0 | 0.00 | 0.00 | 0.00 | 40 | 1015.6 |
| 20260901204358 | 89 | 294 | 4.0 | 6.0 | 0.00 | 0.00 | 0.00 | 42 | 1015.7 |
| 20260901203852 | 90 | 176 | 2.0 | 3.0 | 0.00 | 0.00 | 0.00 | 42 | 1015.8 |
| 20260901203347 | 90 | 285 | 3.0 | 3.0 | 0.00 | 0.00 | 0.00 | 42 | 1015.9 |
| 20260901202842 | 90 | 268 | 3.0 | 3.0 | 0.00 | 0.00 | 0.00 | 44 | 1015.9 |
| 20260901202337 | 90 | 19 | 4.0 | 5.0 | 0.00 | 0.00 | 0.00 | 42 | 1015.9 |
| 20260901201833 | 89 | 1 | 3.0 | 5.0 | 0.00 | 0.00 | 0.00 | 45 | 1016.0 |
| 20260901201332 | 90 | 256 | 1.0 | 1.0 | 0.00 | 0.00 | 0.00 | 43 | 1016.1 |
| 20260901200826 | 89 | 215 | 3.0 | 3.0 | 0.00 | 0.00 | 0.00 | 43 | 1016.1 |
| 20260901200322 | 89 | 228 | 6.0 | 7.0 | 0.00 | 0.00 | 0.00 | 44 | 1016.1 |
| 20260901195821 | 88 | 236 | 7.0 | 8.0 | 0.00 | 0.00 | 0.00 | 45 | 1016.3 |
| 20260901195319 | 89 | 261 | 7.0 | 8.0 | 0.00 | 0.00 | 0.00 | 43 | 1016.3 |
| 20260901194815 | 87 | 261 | 4.0 | 5.0 | 0.00 | 0.00 | 0.00 | 44 | 1016.3 |
| 20260901194309 | 89 | 237 | 4.0 | 5.0 | 0.00 | 0.00 | 0.00 | 44 | 1016.2 |
| 20260901193806 | 89 | 203 | 4.0 | 6.0 | 0.00 | 0.00 | 0.00 | 44 | 1016.4 |
| 20260901193304 | 88 | 25 | 3.0 | 3.0 | 0.00 | 0.00 | 0.00 | 43 | 1016.7 |
| 20260901192759 | 88 | 278 | 7.0 | 7.0 | 0.00 | 0.00 | 0.00 | 43 | 1016.9 |
| 20260901192255 | 87 | 234 | 1.0 | 1.0 | 0.00 | 0.00 | 0.00 | 46 | 1016.9 |
| 20260901191750 | 87 | 302 | 4.0 | 6.0 | 0.00 | 0.00 | 0.00 | 47 | 1016.4 |
| 20260901191247 | 86 | 255 | 5.0 | 7.0 | 0.00 | 0.00 | 0.00 | 45 | 1016.9 |
| 20260901190742 | 87 | 226 | 5.0 | 5.0 | 0.00 | 0.00 | 0.00 | 46 | 1016.8 |
| 20260901190242 | 86 | 215 | 4.0 | 5.0 | 0.00 | 0.00 | 0.00 | 46 | 1016.7 |
| 20260901185740 | 87 | 251 | 6.0 | 7.0 | 0.00 | 0.00 | 0.00 | 47 | 1017.0 |
| 20260901185239 | 88 | 234 | 6.0 | 7.0 | 0.00 | 0.00 | 0.00 | 44 | 1017.2 |
| 20260901184735 | 87 | 266 | 5.0 | 6.0 | 0.00 | 0.00 | 0.00 | 46 | 1016.9 |
| 20260901184230 | 86 | 188 | 1.0 | 2.0 | 0.00 | 0.00 | 0.00 | 47 | 1016.9 |
| 20260901183726 | 86 | 250 | 6.0 | 6.0 | 0.00 | 0.00 | 0.00 | 51 | 1017.1 |
| 20260901183225 | 87 | 307 | 4.0 | 7.0 | 0.00 | 0.00 | 0.00 | 48 | 1017.1 |
| 20260901182722 | 87 | 70 | 1.0 | 1.0 | 0.00 | 0.00 | 0.00 | 45 | 1016.8 |
| 20260901182221 | 86 | 261 | 1.0 | 1.0 | 0.00 | 0.00 | 0.00 | 47 | 1017.3 |
| 20260901181716 | 85 | 232 | 3.0 | 3.0 | 0.00 | 0.00 | 0.00 | 47 | 1017.0 |
| 20260901181215 | 85 | 236 | 4.0 | 5.0 | 0.00 | 0.00 | 0.00 | 47 | 1017.2 |
| 20260901180715 | 86 | 228 | 4.0 | 5.0 | 0.00 | 0.00 | 0.00 | 47 | 1017.3 |
| 20260901180209 | 86 | 283 | 5.0 | 5.0 | 0.00 | 0.00 | 0.00 | 47 | 1017.3 |
| 20260901175709 | 87 | 186 | 1.0 | 2.0 | 0.00 | 0.00 | 0.00 | 46 | 1017.1 |
| 20260901175208 | 85 | 180 | 2.0 | 2.0 | 0.00 | 0.00 | 0.00 | 46 | 1017.2 |
| 20260901174703 | 85 | 234 | 4.0 | 5.0 | 0.00 | 0.00 | 0.00 | 48 | 1017.4 |
| 20260901174200 | 85 | 131 | 1.0 | 1.0 | 0.00 | 0.00 | 0.00 | 46 | 1017.3 |
| 20260901173655 | 84 | 200 | 1.0 | 2.0 | 0.00 | 0.00 | 0.00 | 50 | 1017.3 |
| 20260901173150 | 85 | 266 | 4.0 | 5.0 | 0.00 | 0.00 | 0.00 | 50 | 1017.3 |
| 20260901172646 | 85 | 218 | 3.0 | 3.0 | 0.00 | 0.00 | 0.00 | 50 | 1017.4 |
| 20260901172144 | 84 | 156 | 1.0 | 2.0 | 0.00 | 0.00 | 0.00 | 50 | 1017.5 |
| 20260901171644 | 83 | 219 | 1.0 | 1.0 | 0.00 | 0.00 | 0.00 | 52 | 1017.7 |
| 20260901171143 | 83 | 224 | 4.0 | 5.0 | 0.00 | 0.00 | 0.00 | 54 | 1017.4 |
| 20260901170643 | 83 | 236 | 4.0 | 5.0 | 0.00 | 0.00 | 0.00 | 51 | 1017.5 |
| 20260901170137 | 84 | 233 | 6.0 | 7.0 | 0.00 | 0.00 | 0.00 | 50 | 1017.3 |
| 20260901165636 | 84 | 259 | 3.0 | 3.0 | 0.00 | 0.00 | 0.00 | 53 | 1017.3 |
| 20260901165131 | 84 | 273 | 1.0 | 1.0 | 0.00 | 0.00 | 0.00 | 53 | 1017.4 |
| 20260901164628 | 85 | 162 | 0.0 | 1.0 | 0.00 | 0.00 | 0.00 | 55 | 1017.4 |
| 20260901164122 | 82 | 216 | 2.0 | 2.0 | 0.00 | 0.00 | 0.00 | 56 | 1017.3 |
| 20260901163618 | 82 | 6 | 3.0 | 3.0 | 0.00 | 0.00 | 0.00 | 58 | 1017.7 |
| 20260901163117 | 83 | 337 | 1.0 | 1.0 | 0.00 | 0.00 | 0.00 | 58 | 1017.4 |
| 20260901162612 | 83 | 187 | 0.0 | 0.0 | 0.00 | 0.00 | 0.00 | 59 | 1017.3 |
| 20260901162106 | 83 | 206 | 1.0 | 1.0 | 0.00 | 0.00 | 0.00 | 58 | 1017.6 |
| 20260901161605 | 81 | 162 | 1.0 | 2.0 | 0.00 | 0.00 | 0.00 | 59 | 1017.3 |
| 20260901161104 | 82 | 176 | 0.0 | 0.0 | 0.00 | 0.00 | 0.00 | 60 | 1017.4 |
| 20260901160601 | 83 | 183 | 1.0 | 1.0 | 0.00 | 0.00 | 0.00 | 59 | 1017.2 |
| 20260901160056 | 80 | 149 | 1.0 | 1.0 | 0.00 | 0.00 | 0.00 | 63 | 1017.4 |
| 20260901155555 | 81 | 59 | 2.0 | 2.0 | 0.00 | 0.00 | 0.00 | 63 | 1017.2 |
| 20260901155051 | 80 | 156 | 2.0 | 2.0 | 0.00 | 0.00 | 0.00 | 65 | 1017.5 |
| 20260901154550 | 80 | 36 | 1.0 | 1.0 | 0.00 | 0.00 | 0.00 | 65 | 1017.7 |
| 20260901154045 | 79 | 180 | 0.0 | 0.0 | 0.00 | 0.00 | 0.00 | 66 | 1017.4 |
| 20260901153540 | 78 | 175 | 0.0 | 1.0 | 0.00 | 0.00 | 0.00 | 68 | 1017.5 |
| 20260901153035 | 79 | 90 | 2.0 | 2.0 | 0.00 | 0.00 | 0.00 | 67 | 1017.5 |
| 20260901152535 | 78 | 155 | 1.0 | 1.0 | 0.00 | 0.00 | 0.00 | 69 | 1017.5 |
| 20260901152033 | 78 | 126 | 2.0 | 3.0 | 0.00 | 0.00 | 0.00 | 69 | 1017.4 |
| 20260901151529 | 77 | 186 | 0.0 | 1.0 | 0.00 | 0.00 | 0.00 | 70 | 1017.4 |
| 20260901151029 | 77 | 191 | 1.0 | 1.0 | 0.00 | 0.00 | 0.00 | 72 | 1017.5 |
| 20260901150527 | 76 | 225 | 2.0 | 2.0 | 0.00 | 0.00 | 0.00 | 73 | 1017.4 |
| 20260901150026 | 76 | 199 | 3.0 | 3.0 | 0.00 | 0.00 | 0.00 | 73 | 1017.6 |
| 20260901145519 | 75 | 174 | 2.0 | 3.0 | 0.00 | 0.00 | 0.00 | 74 | 1017.4 |
| 20260901145019 | 76 | 179 | 1.0 | 1.0 | 0.00 | 0.00 | 0.00 | 74 | 1017.6 |
| 20260901144514 | 76 | 158 | 1.0 | 1.0 | 0.00 | 0.00 | 0.00 | 72 | 1017.5 |
| 20260901144009 | 75 | 159 | 1.0 | 1.0 | 0.00 | 0.00 | 0.00 | 75 | 1017.2 |
| 20260901143505 | 74 | 177 | 2.0 | 2.0 | 0.00 | 0.00 | 0.00 | 75 | 1017.5 |
| 20260901143001 | 75 | 186 | 3.0 | 3.0 | 0.00 | 0.00 | 0.00 | 74 | 1017.2 |
| 20260901142455 | 75 | 150 | 2.0 | 3.0 | 0.00 | 0.00 | 0.00 | 73 | 1017.3 |
| 20260901141950 | 74 | 174 | 0.0 | 1.0 | 0.00 | 0.00 | 0.00 | 74 | 1017.5 |
| 20260901141444 | 74 | 131 | 2.0 | 2.0 | 0.00 | 0.00 | 0.00 | 74 | 1017.1 |
| 20260901140940 | 73 | 145 | 1.0 | 1.0 | 0.00 | 0.00 | 0.00 | 76 | 1017.2 |
| 20260901140438 | 73 | 157 | 0.0 | 0.0 | 0.00 | 0.00 | 0.00 | 77 | 1017.2 |
| 20260901135932 | 72 | 167 | 1.0 | 1.0 | 0.00 | 0.00 | 0.00 | 78 | 1017.3 |
| 20260901135427 | 72 | 186 | 0.0 | 0.0 | 0.00 | 0.00 | 0.00 | 79 | 1017.0 |
| 20260901134923 | 71 | 167 | 0.0 | 0.0 | 0.00 | 0.00 | 0.00 | 81 | 1017.2 |
| 20260901134419 | 70 | 177 | 0.0 | 0.0 | 0.00 | 0.00 | 0.00 | 82 | 1016.8 |
| 20260901133918 | 69 | 171 | 0.0 | 0.0 | 0.00 | 0.00 | 0.00 | 83 | 1017.1 |
| 20260901133418 | 69 | 160 | 0.0 | 0.0 | 0.00 | 0.00 | 0.00 | 85 | 1017.1 |
| 20260901132917 | 68 | 189 | 1.0 | 2.0 | 0.00 | 0.00 | 0.00 | 85 | 1017.0 |
| 20260901132412 | 68 | 201 | 0.0 | 0.0 | 0.00 | 0.00 | 0.00 | 86 | 1017.0 |
| 20260901131911 | 68 | 187 | 0.0 | 0.0 | 0.00 | 0.00 | 0.00 | 86 | 1016.9 |
| 20260901131410 | 68 | 172 | 1.0 | 1.0 | 0.00 | 0.00 | 0.00 | 87 | 1016.8 |
| 20260901130906 | 68 | 183 | 0.0 | 0.0 | 0.00 | 0.00 | 0.00 | 87 | 1016.6 |
| 20260901130400 | 68 | 171 | 1.0 | 2.0 | 0.00 | 0.00 | 0.00 | 87 | 1016.9 |
| 20260901125858 | 68 | 194 | 0.0 | 0.0 | 0.00 | 0.00 | 0.00 | 87 | 1016.4 |
| 20260901125357 | 68 | 198 | 0.0 | 0.0 | 0.00 | 0.00 | 0.00 | 87 | 1016.3 |
| 20260901124852 | 68 | 142 | 0.0 | 1.0 | 0.00 | 0.00 | 0.00 | 87 | 1016.7 |
| 20260901124348 | 68 | 135 | 0.0 | 0.0 | 0.00 | 0.00 | 0.00 | 87 | 1016.4 |
| 20260901123847 | 68 | 210 | 0.0 | 1.0 | 0.00 | 0.00 | 0.00 | 87 | 1016.3 |
| 20260901123342 | 68 | 215 | 1.0 | 2.0 | 0.00 | 0.00 | 0.00 | 87 | 1016.2 |
| 20260901122840 | 68 | 192 | 0.0 | 0.0 | 0.00 | 0.00 | 0.00 | 87 | 1016.1 |
| 20260901122335 | 68 | 185 | 0.0 | 0.0 | 0.00 | 0.00 | 0.00 | 87 | 1016.1 |
| 20260901121834 | 68 | 190 | 0.0 | 0.0 | 0.00 | 0.00 | 0.00 | 87 | 1016.3 |
| 20260901121330 | 68 | 194 | 0.0 | 0.0 | 0.00 | 0.00 | 0.00 | 87 | 1016.1 |
| 20260901120825 | 68 | 193 | 0.0 | 0.0 | 0.00 | 0.00 | 0.00 | 87 | 1016.0 |
| 20260901120319 | 69 | 194 | 0.0 | 0.0 | 0.00 | 0.00 | 0.00 | 86 | 1016.1 |
| 20260901115815 | 69 | 211 | 1.0 | 1.0 | 0.00 | 0.00 | 0.00 | 86 | 1016.1 |
| 20260901115310 | 69 | 191 | 0.0 | 0.0 | 0.00 | 0.00 | 0.00 | 86 | 1016.2 |
| 20260901114808 | 69 | 182 | 0.0 | 0.0 | 0.00 | 0.00 | 0.00 | 86 | 1016.2 |
| 20260901114303 | 69 | 175 | 0.0 | 0.0 | 0.00 | 0.00 | 0.00 | 85 | 1016.2 |
| 20260901113801 | 69 | 183 | 0.0 | 0.0 | 0.00 | 0.00 | 0.00 | 85 | 1016.2 |
| 20260901113255 | 69 | 183 | 0.0 | 0.0 | 0.00 | 0.00 | 0.00 | 85 | 1016.2 |
| 20260901112750 | 69 | 193 | 0.0 | 0.0 | 0.00 | 0.00 | 0.00 | 85 | 1016.3 |
| 20260901112249 | 69 | 183 | 0.0 | 0.0 | 0.00 | 0.00 | 0.00 | 85 | 1016.0 |
| 20260901111745 | 69 | 199 | 0.0 | 0.0 | 0.00 | 0.00 | 0.00 | 85 | 1016.2 |
| 20260901111243 | 69 | 205 | 0.0 | 0.0 | 0.00 | 0.00 | 0.00 | 85 | 1016.0 |
| 20260901110737 | 69 | 217 | 0.0 | 0.0 | 0.00 | 0.00 | 0.00 | 85 | 1016.1 |
| 20260901110233 | 69 | 280 | 0.0 | 0.0 | 0.00 | 0.00 | 0.00 | 85 | 1016.1 |
| 20260901105730 | 69 | 188 | 0.0 | 0.0 | 0.00 | 0.00 | 0.00 | 85 | 1016.0 |
| 20260901105229 | 69 | 189 | 0.0 | 0.0 | 0.00 | 0.00 | 0.00 | 85 | 1016.0 |
| 20260901104725 | 69 | 222 | 0.0 | 0.0 | 0.00 | 0.00 | 0.00 | 85 | 1016.0 |
| 20260901104226 | 69 | 195 | 0.0 | 0.0 | 0.00 | 0.00 | 0.00 | 85 | 1016.1 |
| 20260901103725 | 69 | 174 | 0.0 | 0.0 | 0.00 | 0.00 | 0.00 | 85 | 1016.0 |
| 20260901103220 | 69 | 185 | 0.0 | 0.0 | 0.00 | 0.00 | 0.00 | 84 | 1015.9 |
| 20260901102715 | 70 | 216 | 0.0 | 0.0 | 0.00 | 0.00 | 0.00 | 84 | 1015.8 |
| 20260901102215 | 70 | 220 | 0.0 | 0.0 | 0.00 | 0.00 | 0.00 | 84 | 1015.9 |
| 20260901101711 | 70 | 216 | 0.0 | 0.0 | 0.00 | 0.00 | 0.00 | 84 | 1015.7 |
| 20260901101210 | 70 | 192 | 0.0 | 0.0 | 0.00 | 0.00 | 0.00 | 84 | 1015.7 |
| 20260901100705 | 70 | 184 | 0.0 | 0.0 | 0.00 | 0.00 | 0.00 | 84 | 1015.8 |
| 20260901100200 | 70 | 169 | 0.0 | 0.0 | 0.00 | 0.00 | 0.00 | 84 | 1015.8 |
| 20260901095658 | 70 | 151 | 1.0 | 1.0 | 0.00 | 0.00 | 0.00 | 84 | 1015.8 |
| 20260901095156 | 70 | 184 | 0.0 | 0.0 | 0.00 | 0.00 | 0.00 | 84 | 1015.7 |
| 20260901094651 | 70 | 172 | 0.0 | 0.0 | 0.00 | 0.00 | 0.00 | 84 | 1015.7 |
| 20260901094150 | 70 | 152 | 1.0 | 2.0 | 0.00 | 0.00 | 0.00 | 84 | 1015.7 |
| 20260901093645 | 70 | 185 | 1.0 | 2.0 | 0.00 | 0.00 | 0.00 | 83 | 1015.6 |
| 20260901093144 | 70 | 172 | 2.0 | 2.0 | 0.00 | 0.00 | 0.00 | 83 | 1015.5 |
| 20260901092640 | 71 | 220 | 2.0 | 3.0 | 0.00 | 0.00 | 0.00 | 83 | 1015.7 |
| 20260901092137 | 71 | 202 | 3.0 | 5.0 | 0.00 | 0.00 | 0.00 | 83 | 1015.8 |
| 20260901091632 | 71 | 213 | 3.0 | 3.0 | 0.00 | 0.00 | 0.00 | 83 | 1015.8 |
| 20260901091126 | 71 | 196 | 1.0 | 2.0 | 0.00 | 0.00 | 0.00 | 82 | 1015.7 |
| 20260901090621 | 71 | 202 | 2.0 | 2.0 | 0.00 | 0.00 | 0.00 | 81 | 1015.9 |
| 20260901090117 | 71 | 213 | 2.0 | 3.0 | 0.00 | 0.00 | 0.00 | 81 | 1015.7 |
| 20260901085612 | 71 | 186 | 4.0 | 5.0 | 0.00 | 0.00 | 0.00 | 81 | 1015.7 |
| 20260901085108 | 71 | 199 | 4.0 | 7.0 | 0.00 | 0.00 | 0.00 | 82 | 1015.8 |
| 20260901084604 | 71 | 161 | 1.0 | 2.0 | 0.00 | 0.00 | 0.00 | 82 | 1015.8 |
| 20260901084100 | 70 | 194 | 3.0 | 5.0 | 0.00 | 0.00 | 0.00 | 83 | 1015.8 |
| 20260901083600 | 70 | 204 | 2.0 | 3.0 | 0.00 | 0.00 | 0.00 | 83 | 1016.0 |
| 20260901083058 | 71 | 214 | 1.0 | 2.0 | 0.00 | 0.00 | 0.00 | 84 | 1016.0 |
| 20260901082553 | 71 | 188 | 3.0 | 3.0 | 0.00 | 0.00 | 0.00 | 83 | 1015.7 |
| 20260901082049 | 71 | 189 | 0.0 | 0.0 | 0.00 | 0.00 | 0.00 | 83 | 1015.8 |
| 20260901081544 | 71 | 204 | 1.0 | 1.0 | 0.00 | 0.00 | 0.00 | 83 | 1015.9 |
| 20260901081044 | 71 | 177 | 1.0 | 2.0 | 0.00 | 0.00 | 0.00 | 83 | 1016.1 |
| 20260901080538 | 71 | 185 | 0.0 | 0.0 | 0.00 | 0.00 | 0.00 | 83 | 1016.1 |
| 20260901080037 | 71 | 189 | 0.0 | 0.0 | 0.00 | 0.00 | 0.00 | 82 | 1016.0 |
| 20260901075533 | 71 | 194 | 1.0 | 2.0 | 0.00 | 0.00 | 0.00 | 82 | 1016.0 |
| 20260901075032 | 71 | 199 | 2.0 | 2.0 | 0.00 | 0.00 | 0.00 | 83 | 1015.9 |
| 20260901074532 | 71 | 191 | 0.0 | 0.0 | 0.00 | 0.00 | 0.00 | 83 | 1016.2 |
| 20260901074027 | 71 | 193 | 0.0 | 0.0 | 0.00 | 0.00 | 0.00 | 82 | 1016.2 |
| 20260901073524 | 71 | 194 | 0.0 | 0.0 | 0.00 | 0.00 | 0.00 | 82 | 1015.9 |
| 20260901073019 | 72 | 187 | 1.0 | 1.0 | 0.00 | 0.00 | 0.00 | 82 | 1016.1 |
| 20260901072514 | 72 | 208 | 2.0 | 2.0 | 0.00 | 0.00 | 0.00 | 83 | 1016.0 |
| 20260901072009 | 72 | 202 | 1.0 | 1.0 | 0.00 | 0.00 | 0.00 | 83 | 1016.1 |
| 20260901071509 | 72 | 206 | 1.0 | 2.0 | 0.00 | 0.00 | 0.00 | 83 | 1015.9 |
| 20260901071007 | 72 | 184 | 0.0 | 0.0 | 0.00 | 0.00 | 0.00 | 82 | 1016.0 |
| 20260901070503 | 72 | 181 | 0.0 | 0.0 | 0.00 | 0.00 | 0.00 | 82 | 1016.3 |
| 20260901070002 | 72 | 187 | 0.0 | 0.0 | 0.00 | 0.42 | 0.42 | 82 | 1015.9 |
| 20260901065457 | 72 | 186 | 0.0 | 0.0 | 0.00 | 0.42 | 0.42 | 81 | 1015.9 |
| 20260901064952 | 72 | 193 | 0.0 | 0.0 | 0.00 | 0.42 | 0.42 | 81 | 1016.1 |
| 20260901064448 | 72 | 192 | 0.0 | 0.0 | 0.00 | 0.42 | 0.42 | 81 | 1016.3 |
| 20260901063945 | 72 | 194 | 0.0 | 0.0 | 0.00 | 0.42 | 0.42 | 81 | 1016.1 |
| 20260901063442 | 72 | 193 | 0.0 | 0.0 | 0.00 | 0.42 | 0.42 | 81 | 1016.2 |
| 20260901062937 | 72 | 182 | 0.0 | 0.0 | 0.00 | 0.42 | 0.42 | 81 | 1016.4 |
| 20260901062433 | 72 | 191 | 0.0 | 0.0 | 0.00 | 0.42 | 0.42 | 81 | 1016.6 |
| 20260901061929 | 72 | 192 | 0.0 | 0.0 | 0.00 | 0.42 | 0.42 | 81 | 1016.3 |
| 20260901061425 | 72 | 194 | 0.0 | 0.0 | 0.00 | 0.42 | 0.42 | 81 | 1016.3 |
| 20260901060919 | 72 | 188 | 0.0 | 0.0 | 0.00 | 0.42 | 0.42 | 81 | 1016.4 |
| 20260901060415 | 73 | 195 | 0.0 | 0.0 | 0.00 | 0.42 | 0.42 | 81 | 1016.3 |
| 20260901055914 | 73 | 199 | 1.0 | 2.0 | 0.00 | 0.42 | 0.42 | 81 | 1016.3 |
| 20260901055411 | 73 | 202 | 1.0 | 1.0 | 0.00 | 0.42 | 0.42 | 80 | 1016.0 |
| 20260901054907 | 73 | 220 | 1.0 | 1.0 | 0.00 | 0.42 | 0.42 | 79 | 1016.4 |
| 20260901054404 | 74 | 197 | 0.0 | 0.0 | 0.00 | 0.42 | 0.42 | 77 | 1016.1 |
| 20260901053859 | 74 | 140 | 0.0 | 1.0 | 0.00 | 0.42 | 0.42 | 77 | 1016.3 |
| 20260901053355 | 74 | 127 | 0.0 | 0.0 | 0.00 | 0.42 | 0.42 | 78 | 1016.2 |
| 20260901052851 | 73 | 184 | 0.0 | 0.0 | 0.00 | 0.42 | 0.42 | 78 | 1016.0 |
| 20260901052346 | 73 | 150 | 0.0 | 0.0 | 0.00 | 0.42 | 0.42 | 78 | 1016.1 |
| 20260901051844 | 73 | 147 | 0.0 | 0.0 | 0.00 | 0.42 | 0.42 | 78 | 1015.9 |
| 20260901051340 | 74 | 147 | 0.0 | 0.0 | 0.00 | 0.42 | 0.42 | 77 | 1016.2 |
| 20260901050835 | 74 | 146 | 0.0 | 0.0 | 0.00 | 0.42 | 0.42 | 76 | 1016.3 |
| 20260901050330 | 74 | 116 | 1.0 | 1.0 | 0.00 | 0.42 | 0.42 | 76 | 1016.3 |
| 20260901045825 | 74 | 172 | 0.0 | 0.0 | 0.00 | 0.42 | 0.42 | 76 | 1016.1 |
| 20260901045324 | 75 | 161 | 0.0 | 0.0 | 0.00 | 0.42 | 0.42 | 76 | 1016.3 |
| 20260901044820 | 74 | 113 | 1.0 | 2.0 | 0.00 | 0.42 | 0.42 | 76 | 1016.4 |
| 20260901044316 | 74 | 200 | 0.0 | 0.0 | 0.00 | 0.42 | 0.42 | 77 | 1016.2 |
| 20260901043812 | 74 | 199 | 0.0 | 0.0 | 0.00 | 0.42 | 0.42 | 77 | 1016.1 |
| 20260901043308 | 74 | 193 | 1.0 | 1.0 | 0.00 | 0.42 | 0.42 | 77 | 1016.0 |
| 20260901042806 | 75 | 230 | 0.0 | 1.0 | 0.00 | 0.42 | 0.42 | 76 | 1016.3 |
| 20260901042305 | 75 | 198 | 1.0 | 2.0 | 0.00 | 0.42 | 0.42 | 77 | 1016.2 |
| 20260901041757 | 75 | 170 | 0.0 | 0.0 | 0.00 | 0.42 | 0.42 | 76 | 1016.3 |
| 20260901041252 | 75 | 186 | 0.0 | 0.0 | 0.00 | 0.42 | 0.42 | 75 | 1016.3 |
| 20260901040747 | 75 | 181 | 1.0 | 1.0 | 0.00 | 0.42 | 0.42 | 75 | 1016.3 |
| 20260901040246 | 75 | 203 | 3.0 | 3.0 | 0.00 | 0.42 | 0.42 | 75 | 1016.3 |
| 20260901035745 | 76 | 201 | 4.0 | 5.0 | 0.00 | 0.42 | 0.42 | 74 | 1016.0 |
| 20260901035244 | 76 | 196 | 2.0 | 3.0 | 0.00 | 0.42 | 0.42 | 74 | 1016.0 |
| 20260901034743 | 76 | 179 | 0.0 | 1.0 | 0.00 | 0.42 | 0.42 | 73 | 1016.2 |
| 20260901034238 | 76 | 181 | 0.0 | 0.0 | 0.00 | 0.42 | 0.42 | 73 | 1016.1 |
| 20260901033737 | 76 | 191 | 0.0 | 0.0 | 0.00 | 0.42 | 0.42 | 73 | 1016.0 |
| 20260901033237 | 76 | 182 | 0.0 | 1.0 | 0.00 | 0.42 | 0.42 | 73 | 1016.1 |
| 20260901032736 | 76 | 174 | 1.0 | 1.0 | 0.00 | 0.42 | 0.42 | 72 | 1015.9 |
| 20260901032235 | 76 | 128 | 0.0 | 1.0 | 0.00 | 0.42 | 0.42 | 71 | 1015.9 |
| 20260901031726 | 77 | 88 | 0.0 | 1.0 | 0.00 | 0.42 | 0.42 | 71 | 1016.0 |
| 20260901031222 | 77 | 114 | 1.0 | 1.0 | 0.00 | 0.42 | 0.42 | 70 | 1015.9 |
| 20260901030722 | 77 | 187 | 0.0 | 1.0 | 0.00 | 0.42 | 0.42 | 70 | 1015.7 |
| 20260901030217 | 77 | 207 | 1.0 | 1.0 | 0.00 | 0.42 | 0.42 | 67 | 1015.4 |
| 20260901025711 | 77 | 117 | 3.0 | 5.0 | 0.00 | 0.42 | 0.42 | 67 | 1015.5 |
| 20260901025211 | 77 | 157 | 1.0 | 1.0 | 0.00 | 0.42 | 0.42 | 68 | 1015.3 |
| 20260901024706 | 77 | 165 | 1.0 | 2.0 | 0.00 | 0.42 | 0.42 | 69 | 1015.4 |
| 20260901024205 | 77 | 129 | 3.0 | 3.0 | 0.00 | 0.42 | 0.42 | 69 | 1015.3 |
| 20260901023703 | 77 | 126 | 0.0 | 1.0 | 0.00 | 0.42 | 0.42 | 70 | 1015.3 |
| 20260901023158 | 77 | 188 | 1.0 | 2.0 | 0.00 | 0.42 | 0.42 | 70 | 1015.4 |
| 20260901022654 | 77 | 117 | 2.0 | 2.0 | 0.00 | 0.42 | 0.42 | 69 | 1015.0 |
| 20260901022148 | 77 | 157 | 0.0 | 1.0 | 0.00 | 0.42 | 0.42 | 70 | 1014.9 |
| 20260901021644 | 77 | 184 | 0.0 | 0.0 | 0.00 | 0.42 | 0.42 | 71 | 1015.0 |
| 20260901021139 | 77 | 187 | 0.0 | 0.0 | 0.00 | 0.42 | 0.42 | 70 | 1014.8 |
| 20260901020635 | 77 | 173 | 1.0 | 1.0 | 0.00 | 0.42 | 0.42 | 70 | 1014.7 |
| 20260901020130 | 78 | 181 | 0.0 | 0.0 | 0.00 | 0.42 | 0.42 | 68 | 1014.7 |
| 20260901015626 | 78 | 149 | 2.0 | 2.0 | 0.00 | 0.42 | 0.42 | 68 | 1014.8 |
| 20260901015125 | 78 | 182 | 1.0 | 1.0 | 0.00 | 0.42 | 0.42 | 69 | 1014.6 |
| 20260901014620 | 78 | 125 | 1.0 | 1.0 | 0.00 | 0.42 | 0.42 | 69 | 1014.3 |
| 20260901014116 | 78 | 127 | 0.0 | 1.0 | 0.00 | 0.42 | 0.42 | 70 | 1014.4 |
| 20260901013612 | 78 | 162 | 1.0 | 1.0 | 0.00 | 0.42 | 0.42 | 70 | 1014.4 |
| 20260901013107 | 78 | 143 | 1.0 | 1.0 | 0.00 | 0.42 | 0.42 | 71 | 1014.1 |
| 20260901012602 | 78 | 169 | 0.0 | 0.0 | 0.00 | 0.42 | 0.42 | 70 | 1014.1 |
| 20260901012057 | 78 | 174 | 0.0 | 0.0 | 0.00 | 0.42 | 0.42 | 70 | 1014.2 |
| 20260901011553 | 78 | 162 | 0.0 | 1.0 | 0.00 | 0.42 | 0.42 | 70 | 1014.1 |
| 20260901011050 | 78 | 203 | 0.0 | 0.0 | 0.00 | 0.42 | 0.42 | 71 | 1014.1 |
| 20260901010546 | 78 | 195 | 1.0 | 1.0 | 0.00 | 0.42 | 0.42 | 71 | 1014.2 |
| 20260901010045 | 78 | 206 | 1.0 | 2.0 | 0.00 | 0.42 | 0.42 | 70 | 1014.0 |
| 20260901005540 | 78 | 183 | 0.0 | 0.0 | 0.00 | 0.42 | 0.42 | 69 | 1014.2 |
| 20260901005036 | 78 | 196 | 0.0 | 0.0 | 0.00 | 0.42 | 0.42 | 69 | 1014.0 |
| 20260901004535 | 78 | 141 | 1.0 | 1.0 | 0.00 | 0.42 | 0.42 | 67 | 1013.8 |
| 20260901004030 | 79 | 163 | 0.0 | 1.0 | 0.00 | 0.42 | 0.42 | 66 | 1013.8 |
| 20260901003525 | 79 | 165 | 1.0 | 1.0 | 0.00 | 0.42 | 0.42 | 65 | 1014.3 |